User: anonymous   Login
Location: La Comballaz
(46.3780°N, 7.0817°E)
Time: 12:21:53
(UTC+00:00)
Language:

NUDT-PHONESAT - Orbit

View from above orbital plane
View from above orbital plane
View from above satellite
View from above satellite

Ground track
Ground track

The orbit data is extracted from the following two-line orbital elements,

1 40900U 15049B   22338.15981613  .00049991  00000-0  95662-3 0  9997
2 40900  97.3871 358.1245 0009168  44.8704  28.5469 15.47866446400749
Epoch (UTC): 04 December 2022 03:50:08
Eccentricity: 0.0009168
inclination: 97.3871°
perigee height: 417 km
apogee height: 429 km
right ascension of ascending node: 358.1245°
argument of perigee: 44.8704°
revolutions per day: 15.47866446
mean anomaly at epoch: 28.5469°
orbit number at epoch: 40074

The dashed part of the orbit path shows where the satellite is in the earth's shadow,  

DLR